,,,PA_Meas_PMT16A,,PR_Meas_QMR101_102,,RH_Meas_QMH101,,SR_Meas_QMS101,,TA_Meas_QMH101,,GenWind,,GenWind,
date,time,status,PA,status,PR,status,RH,status,SR,status,TA,status,DirAvg,status,SpdAvg,
2011-11-26, 00:00:04,VALID,999.213,VALID,0,VALID,94.5691,VALID,0,VALID,23.3305,VALID,31,VALID,0.904297,
2011-11-26, 00:01:04,VALID,999.249,VALID,0,VALID,94.5615,VALID,0,VALID,23.2932,VALID,24,VALID,0.726172,
2011-11-26, 00:02:04,VALID,999.266,VALID,0,VALID,94.5615,VALID,0,VALID,23.311,VALID,24,VALID,0.705859,
2011-11-26, 00:03:04,VALID,999.292,VALID,0,VALID,94.531,VALID,0,VALID,23.35,VALID,17,VALID,0.641016,
2011-11-26, 00:04:04,VALID,999.282,VALID,0,VALID,94.5462,VALID,0,VALID,23.3695,VALID,17,VALID,0.537891,
2011-11-26, 00:05:04,VALID,999.29,VALID,0,VALID,94.5234,VALID,0,VALID,23.3908,VALID,17,VALID,0.409766,
2011-11-26, 00:06:04,VALID,999.268,VALID,0,VALID,94.5386,VALID,0,VALID,23.3695,VALID,17,VALID,0.479688,
2011-11-26, 00:07:04,VALID,999.279,VALID,0,VALID,94.5462,VALID,0,VALID,23.3908,VALID,17,VALID,0.563281,
2011-11-26, 00:08:04,VALID,999.261,VALID,0,VALID,94.5157,VALID,0,VALID,23.3695,VALID,17,VALID,0.478125,
2011-11-26, 00:09:04,VALID,999.227,VALID,0,VALID,94.5157,VALID,0,VALID,23.4085,VALID,17,VALID,0.441016,
2011-11-26, 00:10:04,VALID,999.193,VALID,0,VALID,94.4928,VALID,0,VALID,23.4493,VALID,17,VALID,0.330078,
2011-11-26, 00:11:04,VALID,999.211,VALID,0,VALID,94.5157,VALID,0,VALID,23.428,VALID,17,VALID,0.306641,
2011-11-26, 00:12:04,VALID,999.157,VALID,0,VALID,94.531,VALID,0,VALID,23.4085,VALID,17,VALID,0.267578,
2011-11-26, 00:13:04,VALID,999.183,VALID,0,VALID,94.5386,VALID,0,VALID,23.389,VALID,17,VALID,0.323828,
2011-11-26, 00:14:04,VALID,999.172,VALID,0,VALID,94.531,VALID,0,VALID,23.3908,VALID,17,VALID,0.362109,
2011-11-26, 00:15:04,VALID,999.135,VALID,0,VALID,94.5462,VALID,0,VALID,23.311,VALID,17,VALID,0.292188,
2011-11-26, 00:16:04,VALID,999.099,VALID,0,VALID,94.5539,VALID,0,VALID,23.3127,VALID,17,VALID,0.196875,
2011-11-26, 00:17:04,VALID,999.06,VALID,0,VALID,94.5386,VALID,0,VALID,23.3305,VALID,17,VALID,0.0375,
2011-11-26, 00:18:04,VALID,999.085,VALID,0,VALID,94.5386,VALID,0,VALID,23.2915,VALID,17,VALID,0,
2011-11-26, 00:19:04,VALID,999.062,VALID,0,VALID,94.5539,VALID,0,VALID,23.2719,VALID,17,VALID,0,
2011-11-26, 00:20:04,VALID,999.066,VALID,0,VALID,94.5539,VALID,0,VALID,23.2719,VALID,17,VALID,0.0613281,
2011-11-26, 00:21:04,VALID,999.041,VALID,0,VALID,94.531,VALID,0,VALID,23.3127,VALID,17,VALID,0.620703,
2011-11-26, 00:22:04,VALID,999.034,VALID,0,VALID,94.5081,VALID,0,VALID,23.35,VALID,17,VALID,0.573047,
2011-11-26, 00:23:04,VALID,999.013,VALID,0,VALID,94.531,VALID,0,VALID,23.3305,VALID,17,VALID,0.630078,
2011-11-26, 00:24:04,VALID,998.991,VALID,0,VALID,94.5234,VALID,0,VALID,23.3127,VALID,66,VALID,0.66875,
2011-11-26, 00:25:04,VALID,998.971,VALID,0,VALID,94.5386,VALID,0,VALID,23.2719,VALID,66,VALID,0.653906,
2011-11-26, 00:26:04,VALID,998.964,VALID,0,VALID,94.5615,VALID,0,VALID,23.2932,VALID,66,VALID,0.650781,
2011-11-26, 00:27:04,VALID,998.94,VALID,0,VALID,94.531,VALID,0,VALID,23.2719,VALID,66,VALID,0.649609,
2011-11-26, 00:28:04,VALID,998.901,VALID,0,VALID,94.531,VALID,0,VALID,23.2932,VALID,77,VALID,0.663281,
2011-11-26, 00:29:04,VALID,998.893,VALID,0,VALID,94.531,VALID,0,VALID,23.311,VALID,128,VALID,0.816406,
2011-11-26, 00:30:04,VALID,998.86,VALID,0,VALID,94.5157,VALID,0,VALID,23.311,VALID,133,VALID,0.779297,
2011-11-26, 00:31:04,VALID,998.862,VALID,0,VALID,94.5081,VALID,0,VALID,23.3518,VALID,144,VALID,0.838281,
2011-11-26, 00:32:04,VALID,998.843,VALID,0,VALID,94.5157,VALID,0,VALID,23.311,VALID,144,VALID,0.689062,
2011-11-26, 00:33:04,VALID,998.84,VALID,0,VALID,94.531,VALID,0,VALID,23.2915,VALID,144,VALID,0.907812,
2011-11-26, 00:34:04,VALID,998.828,VALID,0,VALID,94.5462,VALID,0,VALID,23.2932,VALID,144,VALID,0.719531,
2011-11-26, 00:35:04,VALID,998.791,VALID,0,VALID,94.5615,VALID,0,VALID,23.2329,VALID,142,VALID,0.694531,
2011-11-26, 00:36:04,VALID,998.797,VALID,0,VALID,94.5768,VALID,0,VALID,23.2542,VALID,137,VALID,0.810938,
2011-11-26, 00:37:04,VALID,998.821,VALID,0,VALID,94.5844,VALID,0,VALID,23.2134,VALID,132,VALID,1.06914,
2011-11-26, 00:38:04,VALID,998.837,VALID,0,VALID,94.592,VALID,0,VALID,23.2329,VALID,132,VALID,0.907812,
2011-11-26, 00:39:04,VALID,998.813,VALID,0,VALID,94.5691,VALID,0,VALID,23.2507,VALID,132,VALID,1.02109,
2011-11-26, 00:40:04,VALID,998.79,VALID,0,VALID,94.5844,VALID,0,VALID,23.2702,VALID,132,VALID,0.969141,
2011-11-26, 00:41:04,VALID,998.779,VALID,0,VALID,94.5768,VALID,0,VALID,23.2702,VALID,132,VALID,0.879687,
2011-11-26, 00:42:04,VALID,998.766,VALID,0,VALID,94.592,VALID,0,VALID,23.2897,VALID,132,VALID,0.713672,
2011-11-26, 00:43:04,VALID,998.761,VALID,0,VALID,94.6073,VALID,0,VALID,23.3092,VALID,132,VALID,0.730859,
2011-11-26, 00:44:04,VALID,998.752,VALID,0,VALID,94.6073,VALID,0.104696,VALID,23.35,VALID,132,VALID,0.40625,
2011-11-26, 00:45:04,VALID,998.741,VALID,0,VALID,94.592,VALID,0,VALID,23.3092,VALID,132,VALID,0.251953,
2011-11-26, 00:46:04,VALID,998.696,VALID,0,VALID,94.6073,VALID,0.104696,VALID,23.3305,VALID,132,VALID,0.0351563,
2011-11-26, 00:47:04,VALID,998.709,VALID,0,VALID,94.6378,VALID,0,VALID,23.311,VALID,132,VALID,0,
2011-11-26, 00:48:04,VALID,998.674,VALID,0,VALID,94.6302,VALID,0.104696,VALID,23.2702,VALID,132,VALID,0,
2011-11-26, 00:49:04,VALID,998.69,VALID,0,VALID,94.6302,VALID,0,VALID,23.2507,VALID,132,VALID,0,
2011-11-26, 00:50:04,VALID,998.698,VALID,0,VALID,94.6454,VALID,0,VALID,23.2719,VALID,132,VALID,0,
2011-11-26, 00:51:04,VALID,998.657,VALID,0,VALID,94.6378,VALID,0,VALID,23.2524,VALID,132,VALID,0.366406,
2011-11-26, 00:52:04,VALID,998.675,VALID,0,VALID,94.6683,VALID,0,VALID,23.2134,VALID,132,VALID,0.459766,
2011-11-26, 00:53:04,VALID,998.665,VALID,0,VALID,94.6607,VALID,0.104696,VALID,23.1726,VALID,132,VALID,0.266797,
2011-11-26, 00:54:04,VALID,998.646,VALID,0,VALID,94.6607,VALID,0,VALID,23.1744,VALID,132,VALID,0.395312,
2011-11-26, 00:55:04,VALID,998.622,VALID,0,VALID,94.6683,VALID,0,VALID,23.1744,VALID,132,VALID,0.316797,
2011-11-26, 00:56:04,VALID,998.609,VALID,0,VALID,94.6607,VALID,0,VALID,23.1726,VALID,132,VALID,0.373047,
2011-11-26, 00:57:04,VALID,998.572,VALID,0,VALID,94.676,VALID,0,VALID,23.1336,VALID,132,VALID,0.345703,
2011-11-26, 00:58:04,VALID,998.581,VALID,0,VALID,94.6607,VALID,0,VALID,23.1141,VALID,132,VALID,0.623438,
2011-11-26, 00:59:04,VALID,998.54,VALID,0,VALID,94.6683,VALID,0,VALID,23.1549,VALID,132,VALID,0.592969,
2011-11-26, 01:00:04,VALID,998.514,VALID,0,VALID,94.6531,VALID,0,VALID,23.1531,VALID,79,VALID,0.730859,
2011-11-26, 01:01:04,VALID,998.477,VALID,0,VALID,94.6683,VALID,0,VALID,23.1336,VALID,79,VALID,0.520312,
2011-11-26, 01:02:04,VALID,998.48,VALID,0,VALID,94.6836,VALID,0,VALID,23.1549,VALID,79,VALID,0.623828,
2011-11-26, 01:03:04,VALID,998.463,VALID,0,VALID,94.6683,VALID,0,VALID,23.1336,VALID,79,VALID,0.636719,
2011-11-26, 01:04:04,VALID,998.453,VALID,0,VALID,94.6912,VALID,0,VALID,23.1336,VALID,79,VALID,0.532812,
2011-11-26, 01:05:04,VALID,998.412,VALID,0,VALID,94.6988,VALID,0,VALID,23.1354,VALID,79,VALID,0.353906,
2011-11-26, 01:06:04,VALID,998.387,VALID,0,VALID,94.6988,VALID,0,VALID,23.1354,VALID,79,VALID,0.176563,
2011-11-26, 01:07:04,VALID,998.387,VALID,0,VALID,94.7065,VALID,0,VALID,23.0964,VALID,79,VALID,0,
2011-11-26, 01:08:04,VALID,998.355,VALID,0,VALID,94.6988,VALID,0,VALID,23.0573,VALID,79,VALID,0,
2011-11-26, 01:09:04,VALID,998.362,VALID,0,VALID,94.7065,VALID,0,VALID,23.0573,VALID,79,VALID,0.121094,
2011-11-26, 01:10:04,VALID,998.343,VALID,0,VALID,94.7217,VALID,0,VALID,23.0361,VALID,79,VALID,0.316406,
2011-11-26, 01:11:04,VALID,998.317,VALID,0,VALID,94.7141,VALID,0,VALID,23.0556,VALID,79,VALID,0.230078,
2011-11-26, 01:12:04,VALID,998.326,VALID,0,VALID,94.6836,VALID,0,VALID,23.0964,VALID,79,VALID,0.230469,
2011-11-26, 01:13:04,VALID,998.304,VALID,0,VALID,94.6988,VALID,0,VALID,23.0946,VALID,79,VALID,0.145703,
2011-11-26, 01:14:04,VALID,998.282,VALID,0,VALID,94.7065,VALID,0,VALID,23.0946,VALID,79,VALID,0.0191406,
2011-11-26, 01:15:04,VALID,998.249,VALID,0,VALID,94.6836,VALID,0,VALID,23.1354,VALID,79,VALID,0.0707031,
2011-11-26, 01:16:04,VALID,998.249,VALID,0,VALID,94.6836,VALID,0.104696,VALID,23.1354,VALID,79,VALID,0,
2011-11-26, 01:17:04,VALID,998.269,VALID,0,VALID,94.6836,VALID,0.104696,VALID,23.1336,VALID,87,VALID,0.657031,
2011-11-26, 01:18:04,VALID,998.261,VALID,0,VALID,94.6683,VALID,0,VALID,23.1939,VALID,115,VALID,0.736328,
2011-11-26, 01:19:04,VALID,998.271,VALID,0,VALID,94.6607,VALID,0,VALID,23.1921,VALID,115,VALID,0.7625,
2011-11-26, 01:20:04,VALID,998.283,VALID,0,VALID,94.6683,VALID,0,VALID,23.1921,VALID,115,VALID,0.578125,
2011-11-26, 01:21:04,VALID,998.28,VALID,0,VALID,94.6607,VALID,0,VALID,23.2117,VALID,115,VALID,0.500781,
2011-11-26, 01:22:04,VALID,998.305,VALID,0,VALID,94.676,VALID,0.104696,VALID,23.2312,VALID,115,VALID,0,
2011-11-26, 01:23:04,VALID,998.275,VALID,0,VALID,94.676,VALID,0,VALID,23.2117,VALID,115,VALID,0,
2011-11-26, 01:24:04,VALID,998.268,VALID,0,VALID,94.6988,VALID,0,VALID,23.2542,VALID,115,VALID,0,
2011-11-26, 01:25:04,VALID,998.255,VALID,0,VALID,94.6912,VALID,0,VALID,23.2347,VALID,115,VALID,0,
2011-11-26, 01:26:04,VALID,998.257,VALID,0,VALID,94.7065,VALID,0,VALID,23.2347,VALID,115,VALID,0,
2011-11-26, 01:27:04,VALID,998.274,VALID,0,VALID,94.6912,VALID,0,VALID,23.2134,VALID,115,VALID,0,
2011-11-26, 01:28:04,VALID,998.233,VALID,0,VALID,94.6988,VALID,0,VALID,23.1957,VALID,115,VALID,0,
2011-11-26, 01:29:04,VALID,998.22,VALID,0,VALID,94.7217,VALID,0,VALID,23.1549,VALID,115,VALID,0,
2011-11-26, 01:30:04,VALID,998.197,VALID,0,VALID,94.7141,VALID,0,VALID,23.1762,VALID,115,VALID,0,
2011-11-26, 01:31:04,VALID,998.154,VALID,0,VALID,94.7065,VALID,0,VALID,23.2134,VALID,115,VALID,0,
2011-11-26, 01:32:04,VALID,998.13,VALID,0,VALID,94.7065,VALID,0,VALID,23.2542,VALID,115,VALID,0,
2011-11-26, 01:33:04,VALID,998.07,VALID,0,VALID,94.6683,VALID,0,VALID,23.2347,VALID,115,VALID,0,
2011-11-26, 01:34:04,VALID,998.014,VALID,0,VALID,94.6836,VALID,0,VALID,23.2134,VALID,115,VALID,0,
2011-11-26, 01:35:04,VALID,998.007,VALID,0,VALID,94.6988,VALID,0,VALID,23.1744,VALID,115,VALID,0,
2011-11-26, 01:36:04,VALID,997.972,VALID,0,VALID,94.6988,VALID,0,VALID,23.1354,VALID,115,VALID,0,
2011-11-26, 01:37:04,VALID,997.947,VALID,0,VALID,94.7217,VALID,0,VALID,23.0964,VALID,115,VALID,0,
2011-11-26, 01:38:04,VALID,997.954,VALID,0,VALID,94.7065,VALID,0,VALID,23.0573,VALID,115,VALID,0,
2011-11-26, 01:39:04,VALID,997.933,VALID,0,VALID,94.7294,VALID,0,VALID,23.0378,VALID,115,VALID,0,
2011-11-26, 01:40:04,VALID,997.923,VALID,0,VALID,94.7446,VALID,0,VALID,22.9988,VALID,115,VALID,0,
2011-11-26, 01:41:04,VALID,997.916,VALID,0,VALID,94.7446,VALID,0,VALID,22.9793,VALID,115,VALID,0,
2011-11-26, 01:42:04,VALID,997.915,VALID,0,VALID,94.737,VALID,0,VALID,22.9208,VALID,115,VALID,0,
2011-11-26, 01:43:04,VALID,997.92,VALID,0,VALID,94.7599,VALID,0,VALID,22.9208,VALID,115,VALID,0,
2011-11-26, 01:44:04,VALID,997.952,VALID,0,VALID,94.7446,VALID,0,VALID,22.9013,VALID,115,VALID,0,
2011-11-26, 01:45:04,VALID,997.935,VALID,0,VALID,94.7446,VALID,0,VALID,22.8818,VALID,115,VALID,0,
2011-11-26, 01:46:04,VALID,997.947,VALID,0,VALID,94.7446,VALID,0,VALID,22.8623,VALID,115,VALID,0,
2011-11-26, 01:47:04,VALID,997.944,VALID,0,VALID,94.7446,VALID,0,VALID,22.8818,VALID,115,VALID,0,
2011-11-26, 01:48:04,VALID,997.915,VALID,0,VALID,94.7294,VALID,0,VALID,22.9208,VALID,115,VALID,0,
2011-11-26, 01:49:04,VALID,997.92,VALID,0,VALID,94.7065,VALID,0,VALID,22.9598,VALID,115,VALID,0,
2011-11-26, 01:50:04,VALID,997.935,VALID,0,VALID,94.6988,VALID,0,VALID,22.9793,VALID,115,VALID,0,
2011-11-26, 01:51:04,VALID,997.921,VALID,0,VALID,94.6836,VALID,0,VALID,22.9988,VALID,115,VALID,0,
2011-11-26, 01:52:04,VALID,997.932,VALID,0,VALID,94.676,VALID,0,VALID,22.9988,VALID,115,VALID,0,
2011-11-26, 01:53:04,VALID,997.932,VALID,0,VALID,94.6988,VALID,0,VALID,22.9988,VALID,115,VALID,0,
2011-11-26, 01:54:04,VALID,997.954,VALID,0,VALID,94.6836,VALID,0,VALID,22.9988,VALID,115,VALID,0,
2011-11-26, 01:55:04,VALID,997.934,VALID,0,VALID,94.6683,VALID,0,VALID,23.0183,VALID,115,VALID,0,
2011-11-26, 01:56:04,VALID,997.949,VALID,0,VALID,94.676,VALID,0,VALID,23.0183,VALID,115,VALID,0,
2011-11-26, 01:57:04,VALID,997.919,VALID,0,VALID,94.6607,VALID,0,VALID,23.0573,VALID,115,VALID,0,
2011-11-26, 01:58:04,VALID,997.912,VALID,0,VALID,94.6378,VALID,0,VALID,23.0769,VALID,115,VALID,0,
2011-11-26, 01:59:04,VALID,997.894,VALID,0,VALID,94.6226,VALID,0,VALID,23.0769,VALID,115,VALID,0,
2011-11-26, 02:00:04,VALID,997.874,VALID,0,VALID,94.6531,VALID,0,VALID,23.0378,VALID,115,VALID,0,
2011-11-26, 02:01:04,VALID,997.868,VALID,0,VALID,94.676,VALID,0,VALID,22.9988,VALID,115,VALID,0,
2011-11-26, 02:02:04,VALID,997.899,VALID,0,VALID,94.6683,VALID,0,VALID,22.9598,VALID,115,VALID,0,
2011-11-26, 02:03:04,VALID,997.894,VALID,0,VALID,94.6836,VALID,0,VALID,22.9598,VALID,115,VALID,0,
2011-11-26, 02:04:04,VALID,997.91,VALID,0,VALID,94.6836,VALID,0,VALID,22.9208,VALID,115,VALID,0,
2011-11-26, 02:05:04,VALID,997.926,VALID,0,VALID,94.6836,VALID,0,VALID,22.9208,VALID,115,VALID,0,
2011-11-26, 02:06:04,VALID,997.917,VALID,0,VALID,94.676,VALID,0,VALID,22.9208,VALID,115,VALID,0,
2011-11-26, 02:07:04,VALID,997.945,VALID,0,VALID,94.676,VALID,0,VALID,22.9208,VALID,115,VALID,0,
2011-11-26, 02:08:04,VALID,997.954,VALID,0,VALID,94.676,VALID,0,VALID,22.9208,VALID,115,VALID,0,
2011-11-26, 02:09:04,VALID,997.942,VALID,0,VALID,94.676,VALID,0,VALID,22.8818,VALID,115,VALID,0,
2011-11-26, 02:10:04,VALID,997.976,VALID,0,VALID,94.6454,VALID,0,VALID,22.9208,VALID,115,VALID,0,
2011-11-26, 02:11:04,VALID,997.972,VALID,0,VALID,94.6607,VALID,0,VALID,22.9403,VALID,115,VALID,0,
2011-11-26, 02:12:04,VALID,997.982,VALID,0,VALID,94.6454,VALID,0,VALID,22.9793,VALID,115,VALID,0,
2011-11-26, 02:13:04,VALID,997.981,VALID,0,VALID,94.6302,VALID,0,VALID,23.0183,VALID,115,VALID,0,
2011-11-26, 02:14:04,VALID,997.974,VALID,0,VALID,94.6302,VALID,0,VALID,23.0378,VALID,115,VALID,0,
2011-11-26, 02:15:04,VALID,997.983,VALID,0,VALID,94.6454,VALID,0,VALID,23.0183,VALID,115,VALID,0,
2011-11-26, 02:16:04,VALID,997.984,VALID,0,VALID,94.6378,VALID,0,VALID,22.9988,VALID,115,VALID,0,
2011-11-26, 02:17:04,VALID,998.004,VALID,0,VALID,94.6607,VALID,0,VALID,22.9598,VALID,115,VALID,0,
2011-11-26, 02:18:04,VALID,998.014,VALID,0,VALID,94.6531,VALID,0,VALID,22.9615,VALID,115,VALID,0,
2011-11-26, 02:19:04,VALID,998.006,VALID,0,VALID,94.6836,VALID,0,VALID,22.9208,VALID,115,VALID,0,
2011-11-26, 02:20:04,VALID,997.987,VALID,0,VALID,94.6607,VALID,0,VALID,22.9208,VALID,115,VALID,0,
2011-11-26, 02:21:04,VALID,997.974,VALID,0,VALID,94.6607,VALID,0,VALID,22.9208,VALID,115,VALID,0,
2011-11-26, 02:22:04,VALID,997.948,VALID,0,VALID,94.6683,VALID,0,VALID,22.9013,VALID,115,VALID,0,
2011-11-26, 02:23:04,VALID,997.964,VALID,0,VALID,94.676,VALID,0,VALID,22.903,VALID,115,VALID,0,
2011-11-26, 02:24:04,VALID,997.92,VALID,0,VALID,94.6683,VALID,0.104696,VALID,22.8995,VALID,115,VALID,0,
2011-11-26, 02:25:04,VALID,997.909,VALID,0,VALID,94.6683,VALID,0,VALID,22.88,VALID,115,VALID,0,
2011-11-26, 02:26:04,VALID,997.896,VALID,0,VALID,94.676,VALID,0.104696,VALID,22.8605,VALID,115,VALID,0,
2011-11-26, 02:27:04,VALID,997.88,VALID,0,VALID,94.6607,VALID,0,VALID,22.9208,VALID,115,VALID,0,
2011-11-26, 02:28:04,VALID,997.852,VALID,0,VALID,94.6607,VALID,0.104696,VALID,22.9385,VALID,115,VALID,0,
2011-11-26, 02:29:04,VALID,997.809,VALID,0,VALID,94.6378,VALID,0,VALID,22.9776,VALID,146,VALID,0,
2011-11-26, 02:30:04,VALID,997.825,VALID,0,VALID,94.6226,VALID,0,VALID,23.0573,VALID,146,VALID,0,
2011-11-26, 02:31:04,VALID,997.805,VALID,0,VALID,94.6226,VALID,0,VALID,23.0556,VALID,145,VALID,0,
2011-11-26, 02:32:04,VALID,997.826,VALID,0,VALID,94.6149,VALID,0,VALID,23.0556,VALID,145,VALID,0,
2011-11-26, 02:33:04,VALID,997.773,VALID,0,VALID,94.6226,VALID,0,VALID,23.0378,VALID,145,VALID,0,
2011-11-26, 02:34:04,VALID,997.746,VALID,0,VALID,94.6454,VALID,0.104696,VALID,22.9971,VALID,145,VALID,0,
2011-11-26, 02:35:04,VALID,997.759,VALID,0,VALID,94.6531,VALID,0,VALID,23.0183,VALID,145,VALID,0,
2011-11-26, 02:36:04,VALID,997.744,VALID,0,VALID,94.6531,VALID,0,VALID,23.0183,VALID,145,VALID,0,
2011-11-26, 02:37:04,VALID,997.738,VALID,0,VALID,94.6531,VALID,0,VALID,23.0361,VALID,145,VALID,0,
2011-11-26, 02:38:04,VALID,997.736,VALID,0,VALID,94.6531,VALID,0.104696,VALID,23.0166,VALID,145,VALID,0,
2011-11-26, 02:39:04,VALID,997.736,VALID,0,VALID,94.6378,VALID,0,VALID,23.0573,VALID,145,VALID,0,
2011-11-26, 02:40:04,VALID,997.746,VALID,0,VALID,94.6302,VALID,0,VALID,23.0769,VALID,145,VALID,0,
2011-11-26, 02:41:05,VALID,997.747,VALID,0,VALID,94.6378,VALID,0,VALID,23.0769,VALID,145,VALID,0,
2011-11-26, 02:42:05,VALID,997.755,VALID,0,VALID,94.6454,VALID,0,VALID,23.0769,VALID,145,VALID,0,
2011-11-26, 02:43:05,VALID,997.746,VALID,0,VALID,94.6531,VALID,0,VALID,23.0769,VALID,145,VALID,0,
2011-11-26, 02:44:05,VALID,997.719,VALID,0,VALID,94.6454,VALID,0,VALID,23.0769,VALID,145,VALID,0,
2011-11-26, 02:45:05,VALID,997.746,VALID,0,VALID,94.6683,VALID,0,VALID,23.0769,VALID,145,VALID,0,
2011-11-26, 02:46:05,VALID,997.758,VALID,0,VALID,94.6607,VALID,0,VALID,23.0769,VALID,145,VALID,0,
2011-11-26, 02:47:05,VALID,997.752,VALID,0,VALID,94.6988,VALID,0,VALID,22.9598,VALID,145,VALID,0,
2011-11-26, 02:48:05,VALID,997.766,VALID,0,VALID,94.7217,VALID,0,VALID,22.8995,VALID,145,VALID,0,
2011-11-26, 02:49:05,VALID,997.752,VALID,0,VALID,94.7065,VALID,0,VALID,22.8818,VALID,145,VALID,0,
2011-11-26, 02:50:05,VALID,997.729,VALID,0,VALID,94.7141,VALID,0,VALID,22.8818,VALID,145,VALID,0,
2011-11-26, 02:51:05,VALID,997.74,VALID,0,VALID,94.7141,VALID,0,VALID,22.8818,VALID,145,VALID,0,
2011-11-26, 02:52:05,VALID,997.723,VALID,0,VALID,94.7065,VALID,0,VALID,22.8818,VALID,145,VALID,0,
2011-11-26, 02:53:05,VALID,997.704,VALID,0,VALID,94.6912,VALID,0,VALID,22.8818,VALID,145,VALID,0,
2011-11-26, 02:54:05,VALID,997.678,VALID,0,VALID,94.6912,VALID,0,VALID,22.9013,VALID,146,VALID,0,
2011-11-26, 02:55:05,VALID,997.666,VALID,0,VALID,94.6683,VALID,0,VALID,22.9208,VALID,146,VALID,0,
2011-11-26, 02:56:05,VALID,997.685,VALID,0,VALID,94.676,VALID,0,VALID,22.919,VALID,146,VALID,0,
2011-11-26, 02:57:05,VALID,997.703,VALID,0,VALID,94.6912,VALID,0,VALID,22.9598,VALID,146,VALID,0,
2011-11-26, 02:58:05,VALID,997.718,VALID,0,VALID,94.6836,VALID,0,VALID,22.9598,VALID,146,VALID,0,
2011-11-26, 02:59:05,VALID,997.764,VALID,0,VALID,94.6683,VALID,0,VALID,22.9598,VALID,145,VALID,0,
2011-11-26, 03:00:05,VALID,997.768,VALID,0,VALID,94.6912,VALID,0,VALID,22.9793,VALID,145,VALID,0,
2011-11-26, 03:01:05,VALID,997.776,VALID,0,VALID,94.676,VALID,0,VALID,22.9598,VALID,145,VALID,0,
2011-11-26, 03:02:05,VALID,997.813,VALID,0,VALID,94.676,VALID,0,VALID,22.9598,VALID,145,VALID,0,
2011-11-26, 03:03:05,VALID,997.795,VALID,0,VALID,94.6836,VALID,0,VALID,22.9208,VALID,145,VALID,0,
2011-11-26, 03:04:05,VALID,997.777,VALID,0,VALID,94.6836,VALID,0,VALID,22.9013,VALID,145,VALID,0,
2011-11-26, 03:05:05,VALID,997.798,VALID,0,VALID,94.6912,VALID,0,VALID,22.9013,VALID,145,VALID,0,
2011-11-26, 03:06:05,VALID,997.82,VALID,0,VALID,94.6912,VALID,0,VALID,22.9208,VALID,145,VALID,0,
2011-11-26, 03:07:05,VALID,997.825,VALID,0,VALID,94.6836,VALID,0,VALID,22.9403,VALID,145,VALID,0,
2011-11-26, 03:08:05,VALID,997.836,VALID,0,VALID,94.6683,VALID,0,VALID,22.9403,VALID,145,VALID,0,
2011-11-26, 03:09:05,VALID,997.83,VALID,0,VALID,94.7065,VALID,0,VALID,22.919,VALID,145,VALID,0,
2011-11-26, 03:10:05,VALID,997.845,VALID,0,VALID,94.6683,VALID,0,VALID,22.9598,VALID,145,VALID,0,
2011-11-26, 03:11:05,VALID,997.84,VALID,0,VALID,94.6607,VALID,0,VALID,22.9385,VALID,145,VALID,0,
2011-11-26, 03:12:05,VALID,997.859,VALID,0,VALID,94.6607,VALID,0,VALID,22.9988,VALID,145,VALID,0,
2011-11-26, 03:13:05,VALID,997.855,VALID,0,VALID,94.6454,VALID,0,VALID,23.0183,VALID,145,VALID,0,
2011-11-26, 03:14:05,VALID,997.859,VALID,0,VALID,94.6226,VALID,0,VALID,23.0166,VALID,145,VALID,0,
2011-11-26, 03:15:05,VALID,997.878,VALID,0,VALID,94.6454,VALID,0,VALID,23.0378,VALID,145,VALID,0,
2011-11-26, 03:16:05,VALID,997.9,VALID,0,VALID,94.6378,VALID,0,VALID,23.0361,VALID,145,VALID,0,
2011-11-26, 03:17:05,VALID,997.893,VALID,0,VALID,94.6454,VALID,0,VALID,23.0378,VALID,145,VALID,0,
2011-11-26, 03:18:05,VALID,997.926,VALID,0,VALID,94.6836,VALID,0,VALID,22.9971,VALID,145,VALID,0,
2011-11-26, 03:19:05,VALID,997.903,VALID,0,VALID,94.676,VALID,0,VALID,22.9598,VALID,145,VALID,0,
2011-11-26, 03:20:05,VALID,997.906,VALID,0,VALID,94.6988,VALID,0,VALID,22.9598,VALID,145,VALID,0,
2011-11-26, 03:21:05,VALID,997.89,VALID,0,VALID,94.6836,VALID,0,VALID,22.9208,VALID,145,VALID,0,
2011-11-26, 03:22:05,VALID,997.885,VALID,0,VALID,94.6912,VALID,0,VALID,22.9013,VALID,145,VALID,0,
2011-11-26, 03:23:05,VALID,997.835,VALID,0,VALID,94.7141,VALID,0,VALID,22.841,VALID,145,VALID,0,
2011-11-26, 03:24:05,VALID,997.818,VALID,0,VALID,94.7217,VALID,0,VALID,22.8232,VALID,145,VALID,0,
2011-11-26, 03:25:05,VALID,997.785,VALID,0,VALID,94.7294,VALID,0,VALID,22.8037,VALID,145,VALID,0,
2011-11-26, 03:26:05,VALID,997.785,VALID,0,VALID,94.7217,VALID,0,VALID,22.8037,VALID,145,VALID,0,
2011-11-26, 03:27:05,VALID,997.78,VALID,0,VALID,94.6683,VALID,0,VALID,22.8623,VALID,145,VALID,0,
2011-11-26, 03:28:05,VALID,997.775,VALID,0,VALID,94.6683,VALID,0,VALID,22.8818,VALID,145,VALID,0,
2011-11-26, 03:29:05,VALID,997.82,VALID,0,VALID,94.6683,VALID,0,VALID,22.9208,VALID,145,VALID,0,
2011-11-26, 03:30:05,VALID,997.815,VALID,0,VALID,94.6531,VALID,0,VALID,22.9403,VALID,145,VALID,0,
2011-11-26, 03:31:05,VALID,997.795,VALID,0,VALID,94.6988,VALID,0,VALID,22.8232,VALID,145,VALID,0,
2011-11-26, 03:32:05,VALID,997.777,VALID,0,VALID,94.6988,VALID,0,VALID,22.7842,VALID,145,VALID,0,
2011-11-26, 03:33:05,VALID,997.827,VALID,0,VALID,94.6912,VALID,0,VALID,22.7842,VALID,145,VALID,0,
2011-11-26, 03:34:05,VALID,997.788,VALID,0,VALID,94.7065,VALID,0,VALID,22.7647,VALID,145,VALID,0,
2011-11-26, 03:35:05,VALID,997.795,VALID,0,VALID,94.7065,VALID,0,VALID,22.7435,VALID,145,VALID,0,
2011-11-26, 03:36:05,VALID,997.804,VALID,0,VALID,94.7141,VALID,0,VALID,22.7452,VALID,145,VALID,0,
2011-11-26, 03:37:05,VALID,997.787,VALID,0,VALID,94.7141,VALID,0,VALID,22.7045,VALID,145,VALID,0,
2011-11-26, 03:38:05,VALID,997.776,VALID,0,VALID,94.7217,VALID,0,VALID,22.7257,VALID,145,VALID,0,
2011-11-26, 03:39:05,VALID,997.79,VALID,0,VALID,94.7141,VALID,0,VALID,22.7062,VALID,145,VALID,0,
2011-11-26, 03:40:05,VALID,997.813,VALID,0,VALID,94.7217,VALID,0,VALID,22.6672,VALID,145,VALID,0,
2011-11-26, 03:41:05,VALID,997.83,VALID,0,VALID,94.7217,VALID,0,VALID,22.6282,VALID,145,VALID,0,
2011-11-26, 03:42:05,VALID,997.803,VALID,0,VALID,94.737,VALID,0,VALID,22.6069,VALID,145,VALID,0,
2011-11-26, 03:43:05,VALID,997.83,VALID,0,VALID,94.7217,VALID,0,VALID,22.5892,VALID,145,VALID,0,
2011-11-26, 03:44:05,VALID,997.842,VALID,0,VALID,94.7446,VALID,0,VALID,22.6087,VALID,145,VALID,0,
2011-11-26, 03:45:05,VALID,997.883,VALID,0,VALID,94.7294,VALID,0,VALID,22.6087,VALID,145,VALID,0,
2011-11-26, 03:46:05,VALID,997.88,VALID,0,VALID,94.7065,VALID,0,VALID,22.6069,VALID,145,VALID,0,
2011-11-26, 03:47:05,VALID,997.938,VALID,0,VALID,94.7141,VALID,0,VALID,22.6655,VALID,145,VALID,0,
2011-11-26, 03:48:05,VALID,997.95,VALID,0,VALID,94.7141,VALID,0,VALID,22.685,VALID,145,VALID,0,
2011-11-26, 03:49:05,VALID,997.985,VALID,0,VALID,94.676,VALID,0,VALID,22.724,VALID,145,VALID,0,
2011-11-26, 03:50:05,VALID,997.978,VALID,0,VALID,94.6683,VALID,0,VALID,22.8037,VALID,145,VALID,0,
2011-11-26, 03:51:05,VALID,998.017,VALID,0,VALID,94.6683,VALID,0,VALID,22.8232,VALID,145,VALID,0,
2011-11-26, 03:52:05,VALID,998.009,VALID,0,VALID,94.676,VALID,0,VALID,22.802,VALID,145,VALID,0,
2011-11-26, 03:53:05,VALID,998.019,VALID,0,VALID,94.6607,VALID,0,VALID,22.8232,VALID,145,VALID,0,
2011-11-26, 03:54:05,VALID,998.02,VALID,0,VALID,94.6607,VALID,0,VALID,22.763,VALID,145,VALID,0,